sat.trackr.live / text

‹ back to catalog

STARLINK-5023

NORAD 53919 · 2022-119AK

PAYLOAD ACTIVE UNKNOWN

§ Identity

Operator
Country
US
Launch date
2022-09-24
Launch site
AFETR
Launch vehicle
Mass (kg)
RCS (m²)

Purposes: comms

External: N2YO · Heavens-Above · Gunter

§ Orbital elements

Epoch: 2026-09-20T22:32:14.133408Z

Period
94.01 min
Inclination
53.1612°
Eccentricity
0.0001278
Mean motion
15.31696916 rev/d
Perigee alt
469.9 km
Apogee alt
471.6 km
Semi-major
6,848.9 km
B*
-5.6048e-6
RAAN
143.1347°
Arg perigee
86.3421°
Mean anomaly
273.7727°
Rev number
22,150

§ Raw data

STARLINK-50231 53919U 22119AK  26263.93905247 -.00000539  00000+0 -56048-5 0  99962 53919  53.1612 143.1347 0001278  86.3421 273.7727 15.31696916221504

JSON: /api/v1/satellites/53919 · /tle

For live sub-satellite position, see the globe view (requires WebGL).

§ Visibility from observer

Set your observer location to see the next 7 days of passes ≥ 10°. The values pass through the URL so the page stays shareable.

No JS? Fill the form by hand. The geolocation button needs JavaScript.